• In Deutschland
  • Länderverzeichnis
  • Für 7 Tage
  • Wassertemperatur
  • Satellitenkarten
  • Wetterkarte
  • Widgets
  • user-avatar
    Anmelden

    Stündliche Wetter Lubango

    Heute, 11 Dezember, Montag

    Zeit Temperatur Niederschläge Wind Luftdruck Luftfeuchtigkeit
    00:00 +15°C° 0 mm 1 m/S 608 mmHg 89%
    01:00 +15°C° 0 mm 1 m/S 608 mmHg 90%
    02:00 +15°C° 0 mm 1 m/S 608 mmHg 91%
    03:00 +15°C° 0 mm 1 m/S 608 mmHg 91%
    04:00 +15°C° 0 mm 1 m/S 608 mmHg 91%
    05:00 +15°C° 0 mm 1 m/S 608 mmHg 88%
    06:00 +16°C° 0 mm 1 m/S 609 mmHg 84%
    07:00 +18°C° 0 mm 1 m/S 610 mmHg 78%
    08:00 +20°C° 0,3 mm 1 m/S 610 mmHg 70%
    09:00 +22°C° 0,3 mm 1 m/S 611 mmHg 61%
    10:00 +24°C° 0,3 mm 2 m/S 611 mmHg 52%
    11:00 +25°C° 0,7 mm 2 m/S 611 mmHg 51%
    12:00 +25°C° 0,7 mm 2 m/S 611 mmHg 51%
    13:00 +26°C° 0 mm 2 m/S 610 mmHg 47%
    14:00 +25°C° 0,9 mm 3 m/S 610 mmHg 51%
    15:00 +24°C° 0,9 mm 3 m/S 609 mmHg 55%
    16:00 +22°C° 0,9 mm 3 m/S 609 mmHg 59%
    17:00 +21°C° 0,6 mm 3 m/S 608 mmHg 65%
    18:00 +19°C° 0,6 mm 2 m/S 608 mmHg 72%
    19:00 +18°C° 0,6 mm 2 m/S 608 mmHg 79%
    20:00 +17°C° 0 mm 2 m/S 608 mmHg 82%
    21:00 +16°C° 0 mm 2 m/S 608 mmHg 85%
    22:00 +16°C° 0 mm 1 m/S 608 mmHg 88%
    23:00 +15°C° 0 mm 1 m/S 608 mmHg 89%

    Morgen, 12 Dezember, Dienstag

    Zeit Temperatur Niederschläge Wind Luftdruck Luftfeuchtigkeit
    00:00 +15°C° 0 mm 1 m/S 608 mmHg 90%
    01:00 +15°C° 0 mm 1 m/S 608 mmHg 91%
    02:00 +15°C° 0 mm 1 m/S 607 mmHg 91%
    03:00 +14°C° 0 mm 1 m/S 607 mmHg 92%
    04:00 +14°C° 0 mm 1 m/S 607 mmHg 92%
    05:00 +15°C° 0 mm 1 m/S 607 mmHg 87%
    06:00 +16°C° 0 mm 1 m/S 608 mmHg 82%
    07:00 +18°C° 0 mm 1 m/S 609 mmHg 77%
    08:00 +20°C° 0,1 mm 1 m/S 609 mmHg 68%
    09:00 +22°C° 0,1 mm 1 m/S 610 mmHg 59%
    10:00 +25°C° 0,1 mm 1 m/S 611 mmHg 49%
    11:00 +26°C° 0,6 mm 2 m/S 611 mmHg 47%
    12:00 +26°C° 0,6 mm 2 m/S 611 mmHg 44%
    13:00 +27°C° 0,6 mm 2 m/S 611 mmHg 41%
    14:00 +26°C° 1,1 mm 3 m/S 610 mmHg 45%
    15:00 +26°C° 1,1 mm 3 m/S 609 mmHg 48%
    16:00 +25°C° 1,1 mm 4 m/S 609 mmHg 52%
    17:00 +22°C° 0,8 mm 3 m/S 608 mmHg 61%
    18:00 +20°C° 0,8 mm 3 m/S 608 mmHg 70%
    19:00 +18°C° 0,8 mm 2 m/S 608 mmHg 79%
    20:00 +17°C° 0,2 mm 2 m/S 608 mmHg 81%
    21:00 +16°C° 0,2 mm 2 m/S 608 mmHg 84%
    22:00 +16°C° 0,2 mm 2 m/S 609 mmHg 87%
    23:00 +15°C° 0,1 mm 2 m/S 609 mmHg 88%

    übermorgen, 13 Dezember, Mittwoch

    Zeit Temperatur Niederschläge Wind Luftdruck Luftfeuchtigkeit
    00:00 +15°C° 0,1 mm 1 m/S 608 mmHg 89%
    01:00 +15°C° 0,1 mm 1 m/S 608 mmHg 89%
    02:00 +15°C° 0,2 mm 1 m/S 608 mmHg 90%
    03:00 +15°C° 0,2 mm 1 m/S 608 mmHg 90%
    04:00 +14°C° 0,2 mm 1 m/S 608 mmHg 91%
    05:00 +15°C° 0,6 mm 1 m/S 608 mmHg 88%
    06:00 +15°C° 0,6 mm 1 m/S 609 mmHg 85%
    07:00 +16°C° 0,6 mm 1 m/S 609 mmHg 82%
    08:00 +18°C° 0,3 mm 1 m/S 609 mmHg 77%
    09:00 +19°C° 0,3 mm 1 m/S 610 mmHg 73%
    10:00 +19°C° 0,3 mm 2 m/S 610 mmHg 68%
    11:00 +19°C° 0,1 mm 2 m/S 610 mmHg 66%
    12:00 +19°C° 0,1 mm 2 m/S 610 mmHg 64%
    13:00 +20°C° 0,1 mm 2 m/S 609 mmHg 63%
    14:00 +21°C° 0,1 mm 2 m/S 609 mmHg 60%
    15:00 +21°C° 0,1 mm 3 m/S 609 mmHg 58%
    16:00 +22°C° 0,1 mm 3 m/S 609 mmHg 55%
    17:00 +20°C° 0,5 mm 3 m/S 609 mmHg 63%
    18:00 +19°C° 0,5 mm 2 m/S 609 mmHg 70%
    19:00 +17°C° 0,5 mm 2 m/S 609 mmHg 77%
    20:00 +17°C° 0,4 mm 2 m/S 609 mmHg 80%
    21:00 +16°C° 0,4 mm 2 m/S 609 mmHg 83%
    22:00 +15°C° 0,4 mm 1 m/S 609 mmHg 86%
    23:00 +15°C° 0 mm 1 m/S 609 mmHg 87%

    14 Dezember, Donnerstag

    Zeit Temperatur Niederschläge Wind Luftdruck Luftfeuchtigkeit
    00:00 +15°C° 0 mm 1 m/S 609 mmHg 88%
    01:00 +14°C° 0 mm 1 m/S 609 mmHg 89%
    02:00 +14°C° 0 mm 1 m/S 608 mmHg 89%
    03:00 +14°C° 0 mm 1 m/S 608 mmHg 88%
    04:00 +13°C° 0 mm 0 m/S 608 mmHg 88%
    05:00 +14°C° 0 mm 0 m/S 609 mmHg 82%
    06:00 +15°C° 0 mm 0 m/S 609 mmHg 77%
    07:00 +16°C° 0 mm 0 m/S 610 mmHg 71%
    08:00 +19°C° 0 mm 0 m/S 611 mmHg 60%
    09:00 +23°C° 0 mm 1 m/S 612 mmHg 49%
    10:00 +26°C° 0 mm 1 m/S 613 mmHg 39%
    11:00 +27°C° 0 mm 2 m/S 613 mmHg 36%
    12:00 +28°C° 0 mm 2 m/S 613 mmHg 33%
    13:00 +29°C° 0 mm 3 m/S 612 mmHg 30%
    14:00 +28°C° 0 mm 3 m/S 611 mmHg 33%
    15:00 +27°C° 0 mm 3 m/S 611 mmHg 35%
    16:00 +26°C° 0 mm 4 m/S 610 mmHg 38%
    17:00 +24°C° 0 mm 3 m/S 609 mmHg 43%
    18:00 +21°C° 0 mm 3 m/S 609 mmHg 49%
    19:00 +19°C° 0 mm 2 m/S 608 mmHg 54%
    20:00 +18°C° 0 mm 2 m/S 608 mmHg 58%
    21:00 +18°C° 0 mm 1 m/S 608 mmHg 62%
    22:00 +16°C° 0 mm 1 m/S 608 mmHg 66%
    23:00 +16°C° 0 mm 1 m/S 608 mmHg 67%

    15 Dezember, Freitag

    Zeit Temperatur Niederschläge Wind Luftdruck Luftfeuchtigkeit
    00:00 +16°C° 0 mm 1 m/S 608 mmHg 67%
    01:00 +16°C° 0 mm 1 m/S 608 mmHg 68%
    02:00 +15°C° 0 mm 1 m/S 607 mmHg 68%
    03:00 +15°C° 0 mm 1 m/S 607 mmHg 67%
    04:00 +14°C° 0 mm 1 m/S 607 mmHg 67%
    05:00 +16°C° 0 mm 1 m/S 608 mmHg 61%
    06:00 +18°C° 0 mm 1 m/S 609 mmHg 54%
    07:00 +17°C° 0 mm 0 m/S 609 mmHg 47%
    08:00 +22°C° 0 mm 1 m/S 611 mmHg 39%
    09:00 +24°C° 0 mm 1 m/S 612 mmHg 31%
    10:00 +27°C° 0 mm 1 m/S 613 mmHg 23%
    11:00 +28°C° 0 mm 2 m/S 612 mmHg 22%
    12:00 +29°C° 0 mm 2 m/S 612 mmHg 21%
    13:00 +30°C° 0 mm 2 m/S 612 mmHg 20%
    14:00 +29°C° 0 mm 3 m/S 611 mmHg 21%
    15:00 +28°C° 0 mm 3 m/S 610 mmHg 22%
    16:00 +27°C° 0 mm 4 m/S 610 mmHg 23%
    17:00 +25°C° 0 mm 3 m/S 609 mmHg 27%
    18:00 +21°C° 0 mm 3 m/S 609 mmHg 31%
    19:00 +19°C° 0 mm 2 m/S 608 mmHg 35%
    20:00 +18°C° 0 mm 2 m/S 608 mmHg 38%
    21:00 +18°C° 0 mm 1 m/S 608 mmHg 40%
    22:00 +16°C° 0 mm 1 m/S 609 mmHg 42%
    23:00 +16°C° 0 mm 1 m/S 608 mmHg 43%

    16 Dezember, Samstag

    Zeit Temperatur Niederschläge Wind Luftdruck Luftfeuchtigkeit
    00:00 +15°C° 0 mm 1 m/S 608 mmHg 43%
    01:00 +15°C° 0 mm 1 m/S 607 mmHg 44%
    02:00 +14°C° 0 mm 1 m/S 607 mmHg 43%
    03:00 +14°C° 0 mm 1 m/S 606 mmHg 42%
    04:00 +14°C° 0 mm 1 m/S 606 mmHg 41%
    05:00 +15°C° 0 mm 1 m/S 607 mmHg 39%
    06:00 +18°C° 0 mm 1 m/S 608 mmHg 36%
    07:00 +19°C° 0 mm 1 m/S 609 mmHg 33%
    08:00 +22°C° 0 mm 1 m/S 610 mmHg 28%
    09:00 +25°C° 0 mm 1 m/S 611 mmHg 23%
    10:00 +28°C° 0 mm 1 m/S 613 mmHg 18%
    11:00 +29°C° 0 mm 2 m/S 612 mmHg 17%
    12:00 +30°C° 0 mm 2 m/S 612 mmHg 16%
    13:00 +31°C° 0 mm 3 m/S 612 mmHg 15%
    14:00 +30°C° 0 mm 3 m/S 611 mmHg 17%
    15:00 +29°C° 0 mm 4 m/S 611 mmHg 18%
    16:00 +28°C° 0 mm 4 m/S 610 mmHg 19%
    17:00 +25°C° 0 mm 4 m/S 609 mmHg 25%
    18:00 +21°C° 0 mm 3 m/S 609 mmHg 31%
    19:00 +18°C° 0 mm 2 m/S 608 mmHg 36%
    20:00 +17°C° 0 mm 2 m/S 608 mmHg 40%
    21:00 +16°C° 0 mm 2 m/S 608 mmHg 43%
    22:00 +15°C° 0 mm 1 m/S 608 mmHg 47%
    23:00 +15°C° 0 mm 1 m/S 608 mmHg 47%
    Mehr zeigen